Location: �quirre
(50.4736°N, 2.2351°E)
Time: 17:24:23
(UTC+00:00)

Meteor 1-28 Rocket - Pass Details

Date: 07 August 2020
Orbit: 502 x 524 km, 97.3° (Epoch: 25 September)

Event Time Altitude Azimuth Distance (km) Brightness Sun altitude
Exits shadow 02:36:10 11° 165° (SSE) 1,667 5.4 -14.6°
Maximum altitude 02:39:45 88° 81° (E) 530 3.2 -14.3°
Drops below altitude 10° 02:43:36 10° 347° (NNW) 1,775 6.4 -13.9°
Sets 02:45:43 0° 348° (NNW) 2,670 7.4 -13.6°
